• In Romania
  • List of Countries
  • For 7 days
  • Water Temperature
  • Satellite Maps
  • Weather Map
  • Weather Widgets
  • user-avatar
    Login

    Hourly Weather Parakou

    Today, 22 February, Thursday

    Time Temperature Precipitation Wind Pressure Humidity
    00:00 +29°C° 3.7 mm 3 mps 725 mmHg 70%
    01:00 +28°C° 5.2 mm 3 mps 725 mmHg 74%
    02:00 +27°C° 5.2 mm 3 mps 725 mmHg 78%
    03:00 +27°C° 5.2 mm 3 mps 725 mmHg 82%
    04:00 +27°C° 1.3 mm 2 mps 725 mmHg 83%
    05:00 +27°C° 1.3 mm 2 mps 725 mmHg 83%
    06:00 +27°C° 1.3 mm 2 mps 725 mmHg 83%
    07:00 +27°C° 0.7 mm 2 mps 725 mmHg 82%
    08:00 +27°C° 0.7 mm 3 mps 726 mmHg 81%
    09:00 +27°C° 0.7 mm 3 mps 726 mmHg 80%
    10:00 +28°C° 0 mm 3 mps 726 mmHg 74%
    11:00 +30°C° 0 mm 3 mps 726 mmHg 67%
    12:00 +31°C° 0 mm 3 mps 725 mmHg 61%
    13:00 +33°C° 0 mm 3 mps 725 mmHg 57%
    14:00 +34°C° 0 mm 3 mps 724 mmHg 53%
    15:00 +34°C° 0 mm 3 mps 723 mmHg 49%
    16:00 +34°C° 0 mm 2 mps 723 mmHg 51%
    17:00 +32°C° 0 mm 2 mps 723 mmHg 53%
    18:00 +31°C° 0 mm 1 mps 723 mmHg 55%
    19:00 +31°C° 0 mm 1 mps 724 mmHg 57%
    20:00 +30°C° 0 mm 1 mps 724 mmHg 59%
    21:00 +30°C° 0 mm 1 mps 725 mmHg 61%
    22:00 +29°C° 0 mm 1 mps 725 mmHg 61%
    23:00 +29°C° 0 mm 1 mps 725 mmHg 61%

    Tomorrow, 23 February, Friday

    Time Temperature Precipitation Wind Pressure Humidity
    00:00 +29°C° 0 mm 2 mps 725 mmHg 61%
    01:00 +28°C° 0.1 mm 2 mps 725 mmHg 64%
    02:00 +28°C° 0.1 mm 2 mps 724 mmHg 67%
    03:00 +28°C° 0.1 mm 2 mps 724 mmHg 70%
    04:00 +27°C° 0 mm 2 mps 724 mmHg 72%
    05:00 +27°C° 0 mm 2 mps 724 mmHg 74%
    06:00 +27°C° 0 mm 2 mps 724 mmHg 76%
    07:00 +28°C° 0 mm 2 mps 724 mmHg 73%
    08:00 +29°C° 0 mm 3 mps 725 mmHg 70%
    09:00 +30°C° 0 mm 3 mps 725 mmHg 67%
    10:00 +31°C° 0 mm 3 mps 725 mmHg 62%
    11:00 +34°C° 0 mm 3 mps 725 mmHg 56%
    12:00 +35°C° 0 mm 3 mps 725 mmHg 50%
    13:00 +36°C° 0 mm 2 mps 724 mmHg 46%
    14:00 +37°C° 0 mm 2 mps 723 mmHg 43%
    15:00 +38°C° 0 mm 2 mps 723 mmHg 39%
    16:00 +37°C° 0.2 mm 2 mps 723 mmHg 42%
    17:00 +35°C° 0.2 mm 2 mps 723 mmHg 45%
    18:00 +34°C° 0.2 mm 3 mps 723 mmHg 48%
    19:00 +33°C° 6 mm 3 mps 724 mmHg 57%
    20:00 +30°C° 6 mm 4 mps 725 mmHg 66%
    21:00 +28°C° 6 mm 4 mps 725 mmHg 74%
    22:00 +27°C° 12.8 mm 4 mps 725 mmHg 78%
    23:00 +26°C° 12.8 mm 4 mps 726 mmHg 82%

    Day after tomorrow, 24 February, Saturday

    Time Temperature Precipitation Wind Pressure Humidity
    00:00 +26°C° 12.8 mm 4 mps 726 mmHg 86%
    01:00 +26°C° 1.3 mm 3 mps 725 mmHg 83%
    02:00 +26°C° 1.3 mm 2 mps 725 mmHg 80%
    03:00 +26°C° 1.3 mm 1 mps 724 mmHg 77%
    04:00 +26°C° 0 mm 1 mps 725 mmHg 77%
    05:00 +26°C° 0 mm 1 mps 725 mmHg 76%
    06:00 +26°C° 0 mm 1 mps 725 mmHg 75%
    07:00 +27°C° 0 mm 1 mps 726 mmHg 72%
    08:00 +28°C° 0 mm 2 mps 726 mmHg 68%
    09:00 +29°C° 0 mm 2 mps 727 mmHg 65%
    10:00 +30°C° 0 mm 2 mps 727 mmHg 60%
    11:00 +32°C° 0 mm 2 mps 726 mmHg 55%
    12:00 +34°C° 0 mm 2 mps 726 mmHg 50%
    13:00 +35°C° 0 mm 2 mps 725 mmHg 47%
    14:00 +35°C° 0 mm 1 mps 724 mmHg 44%
    15:00 +35°C° 0 mm 1 mps 724 mmHg 41%
    16:00 +34°C° 0 mm 1 mps 724 mmHg 44%
    17:00 +34°C° 0 mm 1 mps 724 mmHg 47%
    18:00 +33°C° 0 mm 1 mps 724 mmHg 50%
    19:00 +32°C° 0 mm 1 mps 725 mmHg 52%
    20:00 +32°C° 0 mm 1 mps 726 mmHg 54%
    21:00 +31°C° 0 mm 1 mps 726 mmHg 56%
    22:00 +31°C° 0 mm 1 mps 726 mmHg 58%
    23:00 +30°C° 0 mm 1 mps 726 mmHg 60%

    25 February, Sunday

    Time Temperature Precipitation Wind Pressure Humidity
    00:00 +30°C° 0 mm 1 mps 726 mmHg 62%
    01:00 +30°C° 0 mm 1 mps 726 mmHg 63%
    02:00 +29°C° 0 mm 1 mps 725 mmHg 64%
    03:00 +29°C° 0 mm 1 mps 725 mmHg 66%
    04:00 +28°C° 0 mm 1 mps 725 mmHg 69%
    05:00 +28°C° 0 mm 1 mps 725 mmHg 72%
    06:00 +28°C° 0 mm 1 mps 726 mmHg 75%
    07:00 +29°C° 0 mm 2 mps 726 mmHg 72%
    08:00 +30°C° 0 mm 2 mps 727 mmHg 68%
    09:00 +31°C° 0 mm 2 mps 727 mmHg 65%
    10:00 +34°C° 0 mm 2 mps 727 mmHg 58%
    11:00 +35°C° 0 mm 1 mps 726 mmHg 50%
    12:00 +37°C° 0 mm 1 mps 726 mmHg 42%
    13:00 +37°C° 0 mm 1 mps 725 mmHg 41%
    14:00 +37°C° 0 mm 1 mps 724 mmHg 40%
    15:00 +37°C° 0 mm 1 mps 724 mmHg 39%
    16:00 +36°C° 0 mm 1 mps 724 mmHg 41%
    17:00 +35°C° 0 mm 1 mps 724 mmHg 43%
    18:00 +35°C° 0 mm 1 mps 724 mmHg 44%
    19:00 +34°C° 0 mm 1 mps 725 mmHg 47%
    20:00 +33°C° 0 mm 1 mps 725 mmHg 49%
    21:00 +33°C° 0 mm 1 mps 726 mmHg 52%
    22:00 +32°C° 0 mm 1 mps 726 mmHg 55%
    23:00 +32°C° 0 mm 2 mps 726 mmHg 58%

    26 February, Monday

    Time Temperature Precipitation Wind Pressure Humidity
    00:00 +31°C° 0 mm 2 mps 725 mmHg 61%
    01:00 +30°C° 1.5 mm 2 mps 725 mmHg 66%
    02:00 +30°C° 1.5 mm 2 mps 725 mmHg 71%
    03:00 +29°C° 1.5 mm 2 mps 724 mmHg 76%
    04:00 +29°C° 0.9 mm 2 mps 725 mmHg 77%
    05:00 +28°C° 0.9 mm 2 mps 725 mmHg 79%
    06:00 +28°C° 0.9 mm 2 mps 725 mmHg 81%
    07:00 +29°C° 0.1 mm 2 mps 726 mmHg 78%
    08:00 +29°C° 0.1 mm 2 mps 726 mmHg 75%
    09:00 +30°C° 0.1 mm 2 mps 727 mmHg 72%
    10:00 +32°C° 0 mm 2 mps 726 mmHg 64%
    11:00 +34°C° 0 mm 1 mps 726 mmHg 56%
    12:00 +35°C° 0 mm 1 mps 726 mmHg 47%
    13:00 +36°C° 0 mm 1 mps 725 mmHg 43%
    14:00 +37°C° 0 mm 1 mps 724 mmHg 39%
    15:00 +39°C° 0 mm 1 mps 724 mmHg 35%
    16:00 +37°C° 0 mm 1 mps 724 mmHg 38%
    17:00 +36°C° 0 mm 2 mps 724 mmHg 41%
    18:00 +35°C° 0 mm 2 mps 724 mmHg 44%
    19:00 +34°C° 0 mm 2 mps 725 mmHg 48%
    20:00 +34°C° 0 mm 3 mps 725 mmHg 53%
    21:00 +33°C° 0 mm 3 mps 726 mmHg 58%
    22:00 +32°C° 0 mm 4 mps 726 mmHg 62%
    23:00 +30°C° 0 mm 4 mps 726 mmHg 66%

    27 February, Tuesday

    Time Temperature Precipitation Wind Pressure Humidity
    00:00 +29°C° 0 mm 4 mps 726 mmHg 70%
    01:00 +29°C° 0 mm 4 mps 726 mmHg 72%
    02:00 +28°C° 0 mm 3 mps 726 mmHg 73%
    03:00 +28°C° 0 mm 3 mps 725 mmHg 75%
    04:00 +28°C° 0 mm 2 mps 726 mmHg 77%
    05:00 +27°C° 0 mm 2 mps 726 mmHg 78%
    06:00 +27°C° 0 mm 1 mps 726 mmHg 80%
    07:00 +28°C° 0 mm 2 mps 727 mmHg 76%
    08:00 +29°C° 0 mm 2 mps 727 mmHg 72%
    09:00 +30°C° 0 mm 3 mps 728 mmHg 68%
    10:00 +32°C° 0 mm 2 mps 727 mmHg 61%
    11:00 +34°C° 0 mm 2 mps 727 mmHg 55%
    12:00 +36°C° 0 mm 2 mps 727 mmHg 48%
    13:00 +36°C° 0 mm 1 mps 726 mmHg 45%
    14:00 +36°C° 0 mm 1 mps 725 mmHg 42%
    15:00 +37°C° 0 mm 1 mps 725 mmHg 40%
    16:00 +36°C° 0 mm 1 mps 725 mmHg 42%
    17:00 +35°C° 0 mm 1 mps 725 mmHg 45%
    18:00 +35°C° 0 mm 2 mps 725 mmHg 48%
    19:00 +34°C° 0 mm 2 mps 726 mmHg 50%
    20:00 +34°C° 0 mm 2 mps 726 mmHg 53%
    21:00 +33°C° 0 mm 3 mps 727 mmHg 55%
    22:00 +31°C° 0 mm 3 mps 727 mmHg 58%
    23:00 +31°C° 0 mm 3 mps 727 mmHg 60%
    Show more